Newark, NJ

5:51 AM EDT on October 22, 2019 (GMT -0400)
Newark International

Weather History for KEWR - May, 2019

Change the Weather History Date:

Wednesday, May 22, 2019

  Actual Average Record
Temperature  
Mean Temperature 66 °F 64 °F  
Max Temperature 77 °F 74 °F 98 °F (1992)
Min Temperature 55 °F 55 °F 44 °F (1957)
Degree Days  
Heating Degree Days 0 3  
Month to date heating degree days 104 114  
Since 1 July heating degree days 4698 4834  
Cooling Degree Days 1 3  
Month to date cooling degree days 31 32  
Year to date cooling degree days 46 44  
Growing Degree Days 16 (Base 50)    
Moisture  
Dew Point 37 °F    
Average Humidity 36    
Maximum Humidity 51    
Minimum Humidity 19    
Precipitation  
Precipitation 0.00 in 0.15 in 1.11 in (1949)
Month to date precipitation 4.73 2.81  
Year to date precipitation 20.38 17.61  
Snow  
Snow 0.00 in 0.00 in 0.00 in (2002)
Month to date snowfall 0.0 0.0  
Since 1 July snowfall 22.0 28.5  
Snow Depth 0.00 in    
Sea Level Pressure  
Sea Level Pressure 30.20 in    
Wind  
Wind Speed 8 mph ()    
Max Wind Speed 17 mph    
Max Gust Speed 24 mph    
Visibility 10.0 miles    
Events      
T = Trace of Precipitation, MM = Missing Value Source: Averaged Metar Reports

Daily Weather History Graph

Daily Weather History Graph

Search for Another Location

Airport or City:

Astronomy

May. 22, 2019 Rise Set
Actual Time 5:33 AM EDT 8:13 PM EDT
Civil Twilight 5:02 AM EDT 8:45 PM EDT
Nautical Twilight 4:22 AM EDT 9:24 PM EDT
Astronomical Twilight 3:37 AM EDT 10:10 PM EDT
Moon 11:55 PM EDT 8:39 AM EDT
Length of Visible Light 15h 42m
Length of Day
14h 39m
Waning Gibbous, 85% of the Moon is Illuminated
May 22
Waning Gibbous
May 26
Last Quarter
Jun 3
New
Jun 10
First Quarter
Jun 17
Full

Hourly Weather History & Observations

Time (EDT) Temp. Dew Point Humidity Pressure Visibility Wind Dir Wind Speed Gust Speed Precip Events Conditions
12:51 AM 61.0 °F 34.0 °F 36% 30.12 in 10.0 mi NNW 13.8 mph - N/A   Mostly Cloudy
1:51 AM 59.0 °F 35.1 °F 41% 30.13 in 10.0 mi NW 12.7 mph - N/A   Scattered Clouds
2:51 AM 57.9 °F 36.0 °F 44% 30.14 in 10.0 mi NW 10.4 mph - N/A   Partly Cloudy
3:51 AM 55.9 °F 37.0 °F 49% 30.14 in 10.0 mi NW 8.1 mph - N/A   Partly Cloudy
4:51 AM 55.0 °F 37.0 °F 51% 30.15 in 10.0 mi WNW 8.1 mph - N/A   Scattered Clouds
5:51 AM 55.9 °F 37.0 °F 49% 30.18 in 10.0 mi WNW 4.6 mph - N/A   Mostly Cloudy
6:51 AM 57.9 °F 37.9 °F 47% 30.20 in 10.0 mi WNW 5.8 mph - N/A   Scattered Clouds
7:51 AM 61.0 °F 39.0 °F 44% 30.22 in 10.0 mi West 5.8 mph - N/A   Scattered Clouds
8:51 AM 64.9 °F 39.0 °F 39% 30.23 in 10.0 mi NW 9.2 mph - N/A   Scattered Clouds
9:51 AM 68.0 °F 36.0 °F 31% 30.23 in 10.0 mi North 12.7 mph 20.7 mph N/A   Mostly Cloudy
10:51 AM 68.0 °F 36.0 °F 31% 30.24 in 10.0 mi NNW 5.8 mph - N/A   Mostly Cloudy
11:51 AM 71.1 °F 36.0 °F 28% 30.24 in 10.0 mi NW 8.1 mph - N/A   Scattered Clouds
12:51 PM 72.0 °F 34.0 °F 25% 30.22 in 10.0 mi Variable 5.8 mph - N/A   Mostly Cloudy
1:51 PM 73.0 °F 34.0 °F 24% 30.20 in 10.0 mi Variable 4.6 mph - N/A   Mostly Cloudy
2:51 PM 73.9 °F 30.9 °F 21% 30.21 in 10.0 mi Calm Calm - N/A   Mostly Cloudy
3:51 PM 75.0 °F 30.9 °F 20% 30.20 in 10.0 mi WNW 3.5 mph - N/A   Mostly Cloudy
3:55 PM 75.0 °F 34.0 °F 22% 30.20 in 10.0 mi SW 4.6 mph - N/A   Mostly Cloudy
4:51 PM 75.9 °F 34.0 °F 22% 30.20 in 10.0 mi Variable 3.5 mph - N/A   Mostly Cloudy
5:51 PM 75.0 °F 37.9 °F 26% 30.20 in 10.0 mi Variable 6.9 mph - N/A   Mostly Cloudy
6:51 PM 73.0 °F 37.9 °F 28% 30.19 in 10.0 mi SSE 9.2 mph - N/A   Mostly Cloudy
7:51 PM 71.1 °F 43.0 °F 36% 30.19 in 10.0 mi SSE 9.2 mph - N/A   Mostly Cloudy
8:51 PM 68.0 °F 43.0 °F 40% 30.20 in 10.0 mi South 11.5 mph - N/A   Mostly Cloudy
9:51 PM 66.9 °F 42.1 °F 40% 30.22 in 10.0 mi South 10.4 mph - N/A   Mostly Cloudy
10:51 PM 64.9 °F 44.1 °F 47% 30.22 in 10.0 mi SSW 13.8 mph - N/A   Mostly Cloudy
11:51 PM 64.9 °F 44.1 °F 47% 30.22 in 10.0 mi SSW 10.4 mph - N/A   Overcast